Theta_e
349 347 342 341 340 340 339 338 337 335 333 331 329 325 320 320 330 336 338 338 339 338 338 338 338 338 337 337 336 335 333 332 330 323 316 314 315 314 315 314 314 312 312 312 311 310 310 310 309 309 309 309 309 309 309 309 310 310 310 309 308 310 310 310 319 328 330 331 331 333 335 336 336 336 336 337 336 336 336 336 336 335 335 335 335
349 346 342 341 340 340 339 338 336 334 332 331 329 324 319 317 325 333 335 336 337 338 337 337 337 337 337 337 336 335 334 333 331 327 318 314 315 314 315 315 315 313 311 311 310 310 310 310 309 309 309 309 309 309 310 310 309 309 310 309 309 310 311 311 318 327 328 330 332 334 336 336 336 336 337 337 336 336 336 336 336 335 336 335 333
349 346 342 341 341 340 339 338 336 333 331 331 329 324 319 317 321 328 332 333 335 336 336 337 336 336 337 337 336 335 335 334 332 329 320 314 315 315 316 315 315 315 312 310 310 310 310 310 309 309 310 309 310 310 311 311 310 310 310 309 309 310 312 314 319 325 326 328 332 334 336 336 336 336 336 336 336 336 335 335 335 336 335 330 324
348 345 341 341 340 340 339 337 335 331 330 331 329 325 321 319 319 322 326 328 330 333 335 336 336 336 337 337 336 336 335 333 331 329 322 315 315 315 316 316 316 315 312 310 310 310 310 310 310 312 312 312 313 313 312 312 312 311 309 308 309 309 311 315 318 322 324 328 331 334 336 337 337 336 336 336 336 336 336 336 336 334 330 324 319
348 343 341 341 340 339 339 337 333 330 331 331 329 326 324 321 319 319 320 322 326 330 333 335 336 336 336 337 336 335 334 332 330 327 322 316 315 316 316 317 316 314 312 312 312 312 312 311 313 316 316 317 317 315 314 314 314 312 309 307 308 309 310 313 316 320 324 329 332 334 334 336 337 337 337 337 337 336 336 335 334 330 325 322 320
347 342 341 340 339 339 338 336 331 329 331 331 329 328 326 323 320 319 320 321 323 327 332 334 336 336 336 336 336 335 332 331 328 325 321 316 317 319 318 317 315 314 313 313 314 313 313 315 317 318 320 320 318 317 316 316 315 312 311 309 308 308 309 311 313 316 319 324 329 331 332 335 336 335 336 336 335 333 332 332 330 326 322 319 318
346 341 341 340 339 339 338 335 330 330 332 332 331 330 328 324 320 319 321 323 325 328 332 334 335 335 335 334 333 331 329 329 325 322 320 316 317 319 317 316 315 314 314 316 317 317 318 319 318 318 321 321 318 318 317 316 316 313 312 312 310 308 308 309 311 313 314 316 321 326 330 333 334 333 334 334 332 329 327 327 325 322 319 317 317
344 340 340 339 339 338 337 333 329 331 332 333 332 331 330 325 320 319 322 325 326 328 331 333 333 333 333 332 331 330 331 334 330 322 319 316 317 318 317 316 315 314 316 320 320 319 320 319 317 318 321 320 319 318 317 317 316 314 314 314 312 311 309 308 309 310 312 312 314 318 323 328 330 330 331 330 328 324 322 321 319 318 317 317 316
344 340 340 339 339 338 335 331 329 331 333 333 333 332 331 326 320 319 323 325 326 328 330 330 331 332 331 333 334 335 337 339 334 323 320 317 317 319 317 317 316 316 320 323 321 320 319 318 317 319 322 320 319 318 317 318 317 315 315 314 314 313 311 309 309 308 310 311 312 313 315 317 320 323 324 324 323 320 318 318 317 315 314 315 314
342 340 340 339 338 337 334 331 330 331 332 333 333 333 332 328 320 318 323 325 325 326 329 330 331 332 333 335 336 337 338 338 333 323 322 319 318 318 316 317 316 319 326 326 325 325 323 319 317 319 321 320 320 319 318 318 317 316 315 316 314 314 313 312 311 309 309 310 311 312 311 312 313 314 314 317 317 317 316 316 315 312 311 312 313
342 340 339 338 338 337 334 332 331 331 332 333 333 333 332 329 321 317 319 323 323 323 327 330 332 334 334 336 336 337 338 338 332 324 325 321 319 320 318 318 317 323 328 329 329 329 325 320 318 319 320 321 321 320 318 319 319 316 316 317 316 314 314 313 313 311 309 308 309 310 311 312 312 311 310 312 312 312 311 311 311 310 309 310 310
341 340 339 338 338 336 334 333 332 331 332 333 333 333 333 329 322 317 317 318 319 319 322 324 328 332 334 336 336 337 337 335 331 324 324 321 319 322 321 320 320 326 329 330 329 328 324 319 318 319 320 322 323 321 320 321 321 319 316 317 317 315 314 314 314 313 312 310 309 309 310 311 311 311 311 311 310 310 310 309 309 309 309 308 309
340 339 338 338 338 336 335 335 333 331 331 332 333 333 333 330 323 319 317 317 317 318 321 321 325 329 330 331 331 332 330 327 326 323 322 321 321 320 319 319 322 328 331 329 328 327 324 320 319 319 320 321 322 321 321 323 323 321 318 319 319 317 315 314 314 313 313 312 311 309 309 309 310 310 310 310 310 310 310 309 309 308 308 308 308
340 339 338 338 337 336 335 335 334 331 330 332 333 333 333 331 324 320 319 319 320 323 325 326 328 331 331 330 329 332 330 324 323 322 321 323 324 321 319 320 321 327 331 329 329 327 323 321 319 317 319 321 321 321 321 322 323 322 321 321 321 320 318 316 315 314 314 313 313 312 310 309 309 309 309 310 310 310 310 310 309 309 309 308 308
340 339 338 338 337 336 335 336 334 331 331 331 333 333 333 332 327 321 320 320 322 325 327 328 331 333 333 332 331 334 332 326 324 322 320 325 328 324 321 321 320 326 330 329 329 326 323 322 320 318 318 319 321 321 321 322 321 321 322 322 323 322 321 318 317 315 314 314 313 313 312 311 310 309 309 309 309 310 310 310 310 309 309 309 309
340 339 338 338 337 336 335 335 333 332 331 331 332 333 333 334 330 322 320 320 320 322 325 328 332 333 333 333 332 332 328 325 326 325 321 324 329 327 325 324 321 325 328 328 328 326 325 323 321 319 318 319 320 321 321 322 321 320 321 322 323 324 322 320 318 317 316 314 313 313 312 312 310 309 309 309 309 309 309 309 309 309 309 309 310
339 339 338 338 337 336 336 335 333 332 331 331 332 333 333 334 333 325 318 318 319 321 324 329 333 333 332 332 332 330 326 326 327 328 326 324 326 328 328 326 322 325 328 328 328 326 325 323 321 320 318 318 320 322 322 322 321 320 320 321 322 324 325 322 319 318 317 315 314 313 312 312 311 310 310 309 309 308 308 309 309 309 309 309 309
339 339 338 338 337 336 336 335 334 333 330 330 332 333 333 334 335 329 318 317 318 319 323 328 331 331 331 330 329 328 327 329 329 330 329 326 326 327 329 327 323 325 328 328 328 326 325 323 322 321 318 318 319 321 323 323 322 320 320 321 322 323 325 324 322 320 319 317 316 315 313 312 312 311 311 310 309 308 308 308 308 309 309 309 309
339 338 338 337 337 337 336 336 336 335 332 331 332 333 333 333 335 330 319 316 317 317 320 325 328 328 329 329 328 328 330 331 331 330 327 327 329 329 330 328 324 323 325 328 328 326 326 326 324 323 320 318 319 321 323 323 323 322 320 321 322 322 323 325 325 324 322 320 318 317 316 314 312 311 311 311 310 309 308 308 308 308 308 309 309
338 338 338 337 337 337 336 337 337 336 334 333 334 334 334 333 335 329 318 317 317 315 316 320 324 326 327 328 329 330 331 332 331 329 326 328 332 331 331 330 325 320 322 326 326 325 325 326 327 326 324 320 320 321 323 323 324 323 321 321 323 324 324 325 326 326 325 324 321 319 317 316 314 312 312 311 310 310 309 308 308 307 308 308 308
338 338 338 338 338 337 336 338 338 337 335 335 335 335 334 334 335 328 318 316 317 318 318 319 322 324 327 330 332 333 332 333 331 329 329 330 331 330 327 326 324 320 319 322 324 324 323 325 327 327 327 325 323 323 324 324 324 324 323 322 324 326 326 326 327 327 327 326 325 322 319 318 316 315 313 311 311 310 310 309 308 307 307 307 308
338 339 339 338 338 337 337 338 339 338 336 335 335 335 336 334 334 329 317 317 323 328 327 326 327 327 328 331 333 333 332 331 328 326 328 329 326 323 319 318 320 319 318 319 322 324 323 324 326 328 328 328 328 327 327 326 325 326 326 326 326 327 327 327 328 327 328 327 326 325 323 320 319 317 315 313 312 311 311 310 309 307 307 307 307
339 340 340 339 338 338 338 339 339 339 336 336 335 335 336 334 335 330 319 323 330 333 332 331 331 329 329 331 331 331 328 326 322 320 324 323 320 319 317 316 317 317 318 318 320 321 322 323 325 328 328 329 330 330 329 327 326 327 327 328 328 327 327 328 328 328 328 327 326 325 325 324 322 320 318 316 314 313 312 310 309 308 307 307 307
340 340 340 340 339 339 339 339 339 339 337 336 334 334 336 335 335 330 322 329 332 332 333 332 331 329 328 329 328 326 324 321 320 320 320 320 320 320 319 318 317 317 317 317 317 318 319 320 323 327 327 328 329 330 330 328 326 327 328 329 330 328 328 328 328 329 328 328 326 326 326 326 324 322 320 318 317 315 313 311 309 308 308 307 307
340 340 340 340 340 339 339 339 339 339 338 336 335 334 335 335 335 330 324 329 333 333 334 332 330 328 327 328 326 326 324 322 321 321 321 321 322 322 321 321 320 319 318 317 317 317 317 317 320 323 323 324 325 327 329 327 326 327 328 330 331 329 329 328 328 328 329 329 328 328 327 328 326 325 323 321 319 318 315 312 310 309 308 308 307
340 339 339 339 339 339 338 338 338 338 338 336 335 334 335 335 335 332 324 325 333 334 334 333 331 330 330 330 328 329 329 326 323 322 321 322 322 322 322 322 322 321 320 319 319 318 318 317 317 318 318 319 321 323 324 326 327 328 329 331 332 330 329 329 328 329 329 329 330 329 329 328 326 327 326 323 321 319 316 313 311 309 309 308 307
339 338 338 338 338 338 337 336 336 336 337 336 335 335 336 335 334 333 325 323 331 334 334 334 332 332 332 332 331 332 332 330 327 325 323 322 322 322 323 323 323 323 322 321 320 320 320 319 318 317 317 317 318 320 321 323 325 326 329 332 332 331 330 329 329 329 329 330 330 330 330 329 326 327 326 324 323 320 318 315 312 310 310 309 308
339 338 337 337 337 336 336 334 334 334 334 336 335 334 335 335 334 333 327 322 329 334 334 334 332 332 332 333 333 333 333 332 330 327 326 324 322 322 323 323 323 324 324 323 322 321 321 321 320 319 318 318 319 321 321 322 323 325 329 333 332 331 330 330 329 330 331 331 331 330 330 328 326 326 325 324 324 322 319 316 313 311 310 309 308
339 339 337 337 336 335 334 333 333 333 333 335 335 334 334 335 334 333 329 324 326 331 333 334 333 332 332 332 332 333 333 334 332 329 327 325 324 324 324 324 324 325 326 325 325 324 323 322 321 320 320 320 322 323 324 323 323 325 329 332 332 331 331 330 330 331 332 331 331 331 329 328 327 326 325 326 326 323 320 318 315 313 311 310 309
336 337 336 337 337 334 333 333 333 333 334 334 335 334 333 334 334 333 331 327 325 327 331 332 332 332 333 332 332 333 332 333 333 331 328 327 326 326 326 326 326 326 327 327 327 326 326 324 323 323 323 323 323 325 326 326 324 324 327 330 331 331 330 329 330 331 331 331 331 331 329 328 328 326 325 326 326 325 324 322 319 315 312 310 309
332 334 334 336 337 334 333 334 334 334 334 334 335 334 333 334 335 333 332 330 327 327 329 332 332 332 333 332 332 332 331 331 332 331 329 328 328 328 328 328 328 328 327 327 327 327 327 327 326 326 326 326 326 326 327 328 327 325 326 328 330 330 329 328 329 330 331 331 330 330 329 328 328 327 325 324 325 327 327 325 322 318 315 313 312
329 331 332 335 336 335 334 334 334 335 335 335 336 335 334 334 335 334 332 331 329 329 330 332 333 333 333 333 332 332 331 330 331 331 330 329 329 328 328 328 328 328 327 326 327 327 327 327 326 326 326 326 327 328 328 329 328 327 327 328 329 329 329 328 328 329 330 330 330 330 329 329 329 328 326 324 324 327 328 325 325 323 319 319 316
327 328 330 333 336 336 335 334 333 334 335 336 336 336 335 334 335 334 332 330 329 330 331 332 333 333 333 332 332 332 331 330 330 330 330 330 329 329 328 327 327 327 326 326 326 327 327 326 326 326 325 326 327 329 329 329 329 328 328 328 328 329 329 328 328 329 330 330 330 329 329 328 329 329 327 325 323 325 327 326 328 326 323 322 321
327 326 326 330 336 337 336 335 334 335 337 337 336 335 335 334 335 334 331 330 329 330 331 332 333 332 331 331 332 332 330 330 330 330 331 330 329 328 328 327 326 326 326 326 326 327 327 326 326 325 325 326 327 328 328 328 328 328 328 328 328 328 328 328 328 329 330 330 329 328 328 327 327 328 327 327 324 323 324 326 328 327 324 324 324
324 327 331 334 337 337 337 336 334 335 337 337 335 335 335 334 334 333 331 330 330 331 332 331 331 331 330 331 332 331 330 329 330 330 330 330 329 328 327 327 327 326 325 326 326 327 327 327 327 325 325 326 327 327 327 327 327 327 327 328 328 327 328 328 327 328 330 329 327 327 327 327 327 327 327 328 326 324 322 323 326 327 325 326 326
325 329 334 336 337 337 337 337 335 334 335 336 335 335 334 333 333 332 330 330 330 331 332 331 331 330 330 331 331 331 330 329 330 330 329 330 329 328 327 326 327 326 326 326 327 327 327 327 327 325 326 326 327 327 327 327 327 327 327 327 327 326 326 326 327 328 329 329 327 326 327 327 328 327 327 327 326 325 324 321 322 326 326 326 327
326 327 330 333 336 337 336 336 335 333 333 334 335 334 332 331 332 331 329 330 332 332 332 331 331 330 331 331 331 330 330 330 330 330 330 330 329 328 326 326 327 326 325 326 327 327 327 327 327 325 325 326 326 326 327 327 327 327 327 327 327 326 326 326 327 328 329 329 327 326 327 328 328 327 327 327 325 326 326 323 321 323 324 326 327
325 324 325 328 333 336 337 337 335 332 333 334 334 334 332 331 331 330 330 332 332 332 331 332 331 331 332 331 330 329 329 329 329 330 330 330 329 327 327 327 327 326 326 326 326 327 326 327 327 326 326 326 325 325 326 326 327 327 327 327 326 326 326 326 327 327 329 328 326 326 328 327 328 328 327 326 325 326 326 325 324 322 323 325 326
326 326 326 328 332 336 337 337 335 333 334 334 334 334 332 331 331 331 332 332 333 332 331 331 331 332 332 330 328 328 328 328 327 328 329 329 328 327 327 327 327 327 327 326 326 326 326 326 326 325 326 326 324 325 326 326 327 327 327 327 326 326 326 326 327 327 328 328 326 327 328 328 327 327 327 326 326 326 326 325 325 325 324 323 324
327 328 329 330 334 337 337 336 335 334 334 334 334 333 332 332 332 333 333 332 333 332 331 331 331 332 331 329 328 327 327 327 326 326 327 327 328 327 327 327 327 328 327 327 326 326 325 325 325 325 326 325 324 325 325 326 327 326 327 327 327 327 327 327 327 328 328 327 327 327 327 328 327 327 327 327 326 326 326 325 325 326 325 323 323
329 330 331 333 335 337 337 337 336 335 335 334 334 334 333 333 333 333 333 332 332 331 330 330 330 331 331 329 328 328 327 326 325 326 327 328 328 328 328 327 327 327 328 328 327 326 325 325 325 326 326 325 324 325 326 326 326 326 327 327 328 328 328 327 327 328 328 327 327 327 328 328 328 327 327 326 326 326 326 326 325 325 325 324 323
331 330 333 335 336 336 337 337 337 336 335 334 334 334 334 334 333 333 332 330 330 330 329 329 329 330 330 328 328 328 327 326 326 327 328 328 328 328 327 327 327 328 329 328 326 325 325 325 326 326 326 325 325 326 326 327 327 327 327 328 328 328 328 328 327 328 327 326 326 327 328 328 328 328 327 326 326 326 326 325 325 325 325 325 323
332 332 334 335 335 336 337 338 337 336 335 335 335 335 335 333 331 331 330 329 329 329 329 329 328 328 328 328 328 327 326 326 327 327 328 327 327 327 327 327 327 328 328 327 326 325 325 327 327 326 325 325 325 326 326 327 327 327 327 327 328 328 328 328 328 328 327 326 326 326 327 327 328 328 328 327 327 327 327 326 326 326 325 325 324
333 333 333 333 334 336 337 337 337 336 335 335 335 335 334 332 330 330 329 328 329 328 328 329 329 328 327 327 327 326 326 327 327 327 327 327 327 327 327 327 327 327 327 327 326 325 326 327 327 327 326 324 324 325 326 326 326 327 327 327 327 327 327 327 327 327 327 327 327 326 326 327 327 327 327 327 327 327 326 325 326 326 325 325 325
333 334 333 332 334 335 336 337 336 335 335 335 335 334 334 332 329 329 329 330 329 328 328 328 328 328 328 327 327 325 326 326 326 326 326 326 326 327 327 327 326 326 327 327 326 326 326 326 327 327 326 325 324 325 326 326 326 327 327 327 327 327 327 327 327 326 327 327 326 326 326 326 327 327 326 325 326 326 326 325 325 325 325 325 325
333 333 333 332 334 335 336 336 335 334 335 335 334 333 333 331 328 328 329 329 328 327 326 326 327 327 327 327 325 325 325 325 325 326 326 325 325 326 326 326 326 326 326 326 326 326 326 326 325 326 326 326 326 326 326 326 326 326 327 327 326 327 327 326 326 326 326 326 326 326 326 326 326 326 325 325 326 325 324 325 325 325 325 324 324
334 334 333 333 334 336 336 335 334 334 335 334 333 333 331 329 328 328 328 327 326 326 326 326 326 326 326 326 325 324 325 325 325 325 325 325 325 325 326 326 326 326 325 326 325 325 325 325 325 326 326 326 326 326 326 326 326 326 326 327 326 326 326 325 326 326 326 326 326 325 325 325 326 326 325 325 325 324 324 324 324 324 324 323 323
334 334 334 334 334 335 335 334 334 334 334 333 332 331 330 329 329 328 328 327 326 326 326 326 326 326 326 325 324 325 326 325 325 325 325 325 325 325 325 325 325 325 324 323 324 324 324 324 324 325 326 326 326 326 326 327 327 327 326 326 326 326 326 325 325 326 326 326 325 325 324 325 326 326 325 325 324 324 323 323 323 323 323 322 323
334 333 333 334 334 333 334 334 334 333 332 331 331 330 329 329 329 328 328 327 326 327 326 325 326 326 326 325 325 326 326 325 324 325 324 324 324 323 323 323 322 322 321 321 322 322 323 322 322 323 324 325 326 326 327 327 328 327 327 327 326 326 326 326 325 325 325 326 325 325 324 325 325 325 325 324 324 324 323 322 322 322 322 322 323
333 333 333 333 332 333 333 334 332 331 330 330 330 329 328 329 328 327 327 326 325 326 326 326 326 325 325 325 325 324 322 321 322 323 323 321 321 320 319 319 319 319 320 320 321 321 321 321 320 320 323 325 325 326 326 326 327 327 327 327 327 326 326 326 325 325 325 325 325 325 324 324 324 324 324 324 323 323 322 322 321 321 322 322 323
333 333 333 333 332 332 333 334 332 329 328 328 329 328 327 328 326 325 325 324 325 326 325 324 324 323 324 323 321 318 316 316 318 319 319 317 317 317 317 316 316 318 319 319 320 320 319 320 320 320 322 323 325 325 324 325 325 326 327 327 326 326 326 326 325 325 325 325 325 324 324 324 323 324 323 322 321 321 321 321 321 322 322 322 322
Wind_Speed
30 30 30 28 26 24 23 22 21 19 17 16 15 15 16 18 21 21 21 21 21 21 20 20 19 18 17 16 15 15 14 14 14 14 15 17 17 16 17 18 17 17 17 16 17 18 18 19 20 20 20 20 22 24 25 26 27 28 28 28 25 24 22 21 21 21 20 20 19 18 18 18 19 19 19 20 20 19 18 18 17 17 18 17 15
33 32 31 29 27 25 24 23 21 19 17 16 15 15 16 18 20 21 21 21 21 21 21 20 19 18 17 16 15 14 13 13 13 13 14 16 17 16 17 17 17 17 17 16 16 17 17 18 19 19 19 20 22 24 26 27 28 28 29 29 28 25 24 22 22 23 23 21 20 18 18 20 20 20 20 20 19 19 18 18 17 17 17 15 13
33 33 32 29 27 25 24 23 21 19 17 16 15 15 16 17 19 20 21 21 21 21 21 20 19 18 17 16 15 14 13 13 12 13 14 15 16 16 16 17 17 17 17 16 17 16 17 18 17 17 18 19 21 23 26 28 28 29 29 29 29 27 26 23 23 25 24 23 20 19 19 20 20 20 20 19 19 18 17 17 16 16 16 14 14
33 34 32 29 27 25 25 24 22 20 18 16 15 15 15 16 17 19 20 21 21 21 21 21 20 19 17 16 15 14 13 12 12 12 13 14 15 15 15 16 17 17 17 17 17 16 16 17 16 16 17 18 19 22 25 27 29 29 29 29 29 28 26 24 23 24 24 23 20 18 17 17 18 18 18 18 17 17 16 16 15 15 14 13 13
33 34 32 29 27 26 25 24 22 20 18 17 15 15 14 14 15 17 19 20 21 22 22 21 20 19 17 16 14 13 12 12 12 12 13 13 15 15 14 15 17 18 18 17 16 15 16 16 16 15 16 18 18 22 24 26 28 29 29 29 29 28 27 24 22 21 21 20 19 16 14 14 16 17 16 16 15 15 14 13 13 13 12 12 12
34 34 32 30 28 26 26 24 22 21 19 17 16 15 14 13 14 15 17 19 20 21 21 21 20 19 17 16 14 13 12 12 12 13 13 14 15 15 15 16 18 18 18 16 16 16 15 16 16 15 16 18 19 22 25 26 28 28 29 29 29 28 27 25 21 19 17 16 16 13 12 12 13 14 14 14 13 13 11 10 10 10 11 11 11
34 34 32 30 28 27 26 24 23 22 20 18 16 15 13 13 12 14 16 18 20 21 21 20 19 18 17 15 14 12 11 11 12 13 13 14 16 15 15 17 19 19 18 16 16 17 15 15 15 15 18 20 20 22 24 25 27 27 28 28 28 28 27 26 23 19 16 14 13 12 11 10 10 11 11 11 11 11 9 8 8 8 9 10 10
32 33 32 30 29 28 25 24 23 22 20 18 16 14 13 12 12 14 16 18 19 20 21 20 19 18 17 16 14 12 11 11 11 13 14 15 16 15 16 18 20 19 18 16 16 17 16 15 14 16 19 21 21 22 23 25 26 26 27 27 27 28 27 26 25 22 18 15 13 12 11 9 9 9 9 9 8 8 7 6 7 7 8 9 9
31 32 31 29 28 27 25 24 23 21 20 18 16 14 13 12 12 14 16 18 19 20 20 20 19 17 17 15 14 14 14 14 11 12 14 15 16 16 17 18 20 19 18 17 17 17 16 15 14 18 20 20 21 22 22 24 25 25 26 26 26 26 27 26 26 25 22 18 15 13 11 10 10 9 8 8 6 6 6 6 6 6 6 7 8
32 31 30 29 28 27 25 24 22 21 19 17 15 14 13 12 12 14 16 18 19 20 19 19 19 18 17 16 16 15 15 14 11 11 13 15 17 17 18 19 20 19 18 17 17 16 16 15 15 19 19 19 20 21 22 22 23 24 25 26 25 25 25 26 26 25 24 21 18 16 15 14 13 11 10 8 6 6 6 6 7 7 7 7 7
32 30 29 29 28 26 25 23 22 20 19 17 15 13 12 12 13 14 16 17 18 19 18 18 19 19 19 18 17 17 15 12 11 12 14 15 16 18 18 19 20 19 18 18 17 16 16 15 15 19 19 19 20 20 21 22 22 22 23 24 24 24 24 24 25 25 24 22 21 19 18 18 17 14 12 10 9 9 9 8 9 9 10 10 9
31 30 29 28 28 26 25 23 22 20 19 18 16 14 13 13 13 14 15 17 17 18 18 18 20 20 19 18 17 16 14 12 11 12 14 15 16 17 18 20 20 19 18 18 17 16 16 15 15 18 20 19 19 20 20 21 21 21 21 22 23 23 23 23 24 24 23 22 22 21 20 19 18 17 16 15 14 14 14 13 13 12 12 12 11
30 29 29 29 28 26 25 23 22 20 19 18 17 14 13 13 13 13 14 16 17 18 18 18 19 19 18 17 15 14 12 11 11 11 13 15 15 16 18 20 20 18 18 18 17 16 16 15 15 17 20 19 19 19 19 19 19 19 19 20 21 21 21 21 22 22 22 21 21 21 20 19 18 18 18 17 17 17 17 17 16 16 15 15 14
29 29 29 29 28 26 24 23 22 21 20 18 17 15 14 14 13 13 14 15 16 17 17 17 18 17 17 15 14 13 10 10 11 11 14 15 14 15 18 19 20 19 18 17 16 16 16 16 14 15 18 18 18 18 17 17 17 18 18 19 20 20 20 20 21 20 20 20 21 20 20 19 18 18 18 18 17 17 18 17 17 17 16 16 16
28 29 29 29 28 26 24 23 22 21 20 19 18 16 14 14 13 13 14 14 15 17 17 17 18 17 16 15 13 12 10 9 11 11 13 15 14 14 16 17 19 20 18 17 17 16 16 15 14 14 16 17 17 17 16 16 16 16 16 17 18 19 18 19 19 19 19 19 20 20 19 18 18 18 17 17 16 16 16 16 16 16 16 16 16
28 28 29 29 28 27 25 23 22 21 20 19 18 16 14 14 14 13 13 14 15 17 18 18 18 16 15 15 14 12 10 10 11 12 12 15 15 14 14 15 19 19 17 17 17 17 16 15 14 13 14 15 15 15 15 14 14 15 15 15 16 18 18 18 18 18 18 18 18 18 17 17 16 16 16 15 15 15 15 15 15 15 16 15 16
29 28 29 29 29 28 26 24 22 21 20 20 18 17 15 14 14 13 13 14 16 17 18 18 17 16 15 15 14 12 11 11 12 12 12 14 15 15 14 13 17 18 17 17 17 17 16 14 13 12 12 12 13 13 13 13 13 13 13 14 14 16 16 17 18 18 17 17 17 16 16 15 15 15 14 15 14 14 14 14 14 14 14 14 14
29 29 30 29 29 29 28 25 23 22 21 20 19 17 15 14 14 13 13 15 16 17 18 17 16 15 15 15 14 13 13 13 12 12 12 13 15 16 15 13 15 17 18 19 18 18 16 14 13 12 11 11 10 10 11 11 11 12 12 12 13 14 14 15 16 17 17 17 16 15 14 14 13 13 13 13 14 13 13 13 13 13 13 13 13
29 30 30 30 30 30 28 25 23 22 21 21 19 17 15 13 13 13 14 15 16 16 17 17 16 15 15 15 14 14 14 13 12 12 12 13 15 15 15 13 14 17 19 20 19 18 16 15 14 12 11 10 9 8 9 9 9 10 10 11 11 12 12 13 14 15 15 15 15 14 14 13 12 12 12 12 12 12 11 11 12 12 12 12 12
30 31 31 30 31 30 29 26 23 22 21 20 19 17 15 14 14 14 15 16 16 16 17 17 16 16 16 15 15 15 14 14 13 12 12 14 15 14 15 14 15 17 20 21 20 19 17 16 14 13 11 10 9 8 7 7 7 8 8 8 9 10 11 12 13 13 13 13 13 13 13 12 12 11 10 10 10 10 10 10 10 10 11 11 11
31 31 32 32 31 30 29 26 23 22 21 20 19 18 16 15 14 14 16 16 17 17 17 17 16 16 16 16 16 15 15 15 13 13 14 14 15 14 15 15 16 17 19 21 20 19 17 16 15 13 12 10 10 8 7 6 6 6 6 7 7 8 10 11 12 12 12 12 12 12 12 12 11 10 9 8 8 8 8 8 9 9 9 9 9
32 31 31 31 31 30 29 26 23 22 21 20 20 19 17 16 14 15 17 17 17 17 17 17 17 17 16 16 16 15 14 13 12 14 15 15 16 16 16 16 16 17 18 19 20 19 17 16 15 13 12 11 10 9 8 6 5 4 5 6 6 6 8 10 11 11 11 10 11 11 11 11 11 10 8 7 7 6 6 7 7 8 8 7 8
32 29 28 29 29 29 26 24 23 22 21 20 20 20 18 17 16 16 18 17 17 17 17 17 17 17 16 16 15 13 12 13 13 14 15 16 16 16 16 16 15 15 15 17 18 18 17 16 16 14 13 12 11 9 8 7 5 4 4 5 6 5 6 9 10 10 10 9 10 9 10 10 10 10 9 7 6 5 5 5 6 6 6 6 6
30 28 25 26 25 25 24 23 22 22 21 21 20 20 18 17 16 17 18 17 17 17 17 17 17 17 16 16 14 14 14 15 15 15 16 16 17 16 16 16 15 14 13 14 15 16 16 15 16 15 14 13 11 10 9 8 7 6 4 4 5 6 6 7 8 9 9 9 9 8 9 9 9 9 8 7 6 4 3 3 4 4 4 5 5
27 27 25 23 23 22 22 22 22 22 22 21 20 20 19 17 16 16 17 18 17 17 18 17 16 16 16 16 15 15 15 16 15 15 15 15 16 16 16 16 15 15 14 13 13 13 13 13 15 16 15 14 12 11 10 10 9 8 6 4 5 7 7 6 6 7 8 8 7 7 8 8 7 8 7 7 6 4 3 2 2 2 3 3 4
26 25 24 23 22 21 21 22 22 22 22 22 21 21 19 18 17 15 16 17 17 18 18 17 17 17 16 16 15 15 15 15 14 14 14 14 14 15 15 15 14 14 14 13 12 11 11 11 12 13 12 12 13 12 11 11 10 9 8 6 5 6 7 6 5 6 6 6 6 6 7 7 7 7 6 6 6 4 2 2 2 2 1 2 2
23 24 24 22 22 21 22 23 23 22 23 23 22 21 19 19 17 15 16 17 18 18 19 18 17 17 16 15 15 14 14 13 13 13 13 13 13 13 14 13 13 12 12 11 10 10 10 9 9 10 9 10 11 11 10 10 10 10 9 6 5 5 4 4 4 5 5 5 5 5 6 6 6 6 6 6 6 5 3 1 2 1 1 1 1
22 23 23 23 24 23 23 22 23 23 23 23 23 22 20 19 18 15 16 17 18 18 18 19 17 16 16 15 14 13 13 12 12 12 12 12 12 12 12 12 11 11 10 10 10 9 9 9 9 9 8 9 9 8 8 8 9 10 9 8 6 4 3 3 3 4 5 5 4 4 4 5 5 6 5 5 6 6 5 2 1 1 1 1 1
19 20 22 23 24 24 23 22 23 24 23 23 24 24 22 20 19 17 17 17 18 16 16 17 17 16 16 14 14 13 12 12 11 11 11 11 12 11 10 10 9 9 9 9 8 8 8 8 8 8 8 8 8 7 6 5 6 8 9 9 7 4 2 2 3 4 5 5 4 3 3 4 4 4 4 3 5 6 7 5 3 1 0 0 0
9 15 19 20 22 24 24 24 25 25 23 23 24 24 23 22 20 18 17 16 16 15 14 14 15 16 16 15 14 13 12 11 10 10 10 11 11 10 9 8 7 6 6 6 6 7 7 7 8 8 8 8 8 7 6 5 5 7 9 9 7 5 3 3 4 5 5 5 3 3 3 3 3 3 4 4 4 6 8 9 8 5 3 1 0
6 13 18 20 21 23 25 25 26 25 24 23 23 24 24 23 20 18 16 14 14 15 14 14 15 16 16 15 14 14 12 11 10 10 10 10 10 9 7 7 6 6 6 6 6 6 6 7 7 8 8 8 7 7 7 7 7 8 10 10 8 6 5 5 5 5 5 4 3 3 3 3 3 3 4 4 5 6 6 9 10 8 6 5 3
14 16 21 25 24 24 25 26 26 25 24 23 23 24 23 21 19 17 15 12 13 14 13 14 15 16 16 16 15 14 13 11 11 10 9 9 9 8 7 7 7 7 6 6 6 6 7 7 7 7 7 7 7 7 7 8 9 9 10 10 9 7 6 5 5 6 6 4 4 3 3 4 4 3 3 6 7 5 3 5 8 9 9 8 7
23 20 19 23 25 26 27 27 28 26 25 24 25 24 23 22 20 17 13 11 13 14 13 14 15 17 16 16 15 13 13 12 11 10 9 9 9 8 8 7 7 8 7 7 7 7 7 8 7 6 6 7 7 8 7 9 9 9 10 10 9 8 7 6 6 7 6 5 4 3 4 4 4 3 3 5 7 5 3 2 4 6 9 10 10
24 24 22 23 27 29 28 26 26 26 24 24 25 23 22 21 19 16 12 11 14 15 14 15 16 16 15 15 15 13 13 12 11 11 10 10 9 9 8 8 7 8 8 7 7 8 8 8 7 5 5 6 7 8 8 9 9 9 9 9 8 8 7 7 6 7 6 6 4 3 4 4 4 4 3 2 5 5 3 2 2 4 7 8 9
28 29 27 27 30 27 24 21 21 22 21 21 21 20 19 18 16 14 12 11 14 15 15 16 15 15 14 15 15 14 14 13 12 11 11 10 10 9 9 8 8 8 8 7 8 9 8 7 7 6 6 7 8 8 8 9 9 9 9 8 8 7 7 7 6 6 7 6 4 3 4 4 5 5 4 4 2 4 3 1 2 3 4 5 7
27 28 27 28 29 25 22 20 20 21 20 20 20 19 18 16 16 14 12 13 15 16 15 15 15 15 15 15 15 15 14 13 12 12 12 11 10 10 9 9 9 8 7 7 8 9 8 8 7 6 7 7 8 8 8 9 9 9 9 9 8 8 7 8 7 7 7 6 5 4 4 4 4 5 5 5 4 2 1 2 2 3 3 4 5
19 18 21 26 27 25 23 21 22 21 20 20 21 21 18 16 16 13 12 15 16 16 16 16 16 16 15 15 15 15 15 13 12 12 12 11 10 10 10 9 9 8 8 8 8 9 9 8 7 7 8 8 8 8 8 8 8 8 8 9 9 8 8 8 8 7 7 6 5 5 5 5 4 5 6 6 5 5 2 2 3 3 4 4 4
16 14 15 21 26 26 23 20 20 20 20 21 22 21 18 16 16 13 14 16 17 17 16 15 16 16 16 16 15 15 14 13 12 12 11 11 10 10 10 9 9 9 8 8 9 9 8 9 8 8 8 9 8 7 7 7 8 8 8 9 9 8 8 8 8 6 6 5 5 5 6 6 6 6 6 6 6 5 3 2 3 2 3 3 3
18 15 12 17 23 24 21 19 18 18 19 21 22 21 19 18 16 13 14 16 17 16 15 15 15 16 16 16 15 14 13 12 11 11 10 11 10 9 9 10 9 9 9 9 9 9 8 9 9 9 9 10 9 8 8 7 8 8 8 9 8 8 8 8 7 6 6 4 5 5 5 5 7 7 6 6 6 5 3 3 4 3 2 3 4
18 15 12 15 21 22 20 19 19 18 19 18 19 20 20 19 16 14 15 17 17 17 15 15 15 16 16 15 14 13 12 10 10 9 9 10 10 9 9 10 9 9 9 9 8 8 8 8 9 10 9 9 9 9 8 7 8 8 9 8 8 8 7 7 7 7 6 5 5 5 5 5 6 7 6 6 5 5 4 3 4 4 3 3 3
18 15 13 15 19 21 20 19 19 18 19 18 19 19 19 17 15 16 17 17 17 16 16 15 16 16 16 14 13 12 10 9 9 9 9 9 9 10 10 10 10 9 9 8 8 8 8 9 9 10 9 8 8 8 9 8 7 8 9 8 8 8 7 7 6 6 6 6 5 5 6 6 6 6 6 6 5 5 4 3 3 3 4 5 4
19 15 13 15 18 19 18 19 18 18 19 20 19 18 16 15 16 16 17 16 16 15 15 15 15 15 15 13 12 11 9 9 9 9 9 9 10 10 10 11 10 10 9 9 9 9 9 9 9 9 10 9 8 8 9 8 6 7 8 8 7 6 5 5 5 5 4 5 5 5 6 7 7 6 6 7 6 5 4 3 3 3 4 5 5
17 14 14 16 17 18 20 20 19 18 20 19 17 17 16 15 15 15 15 15 15 15 14 14 14 14 14 14 12 11 9 9 9 9 9 10 10 10 11 11 11 10 10 9 9 9 9 9 9 9 9 9 9 8 9 8 6 6 7 6 6 5 5 4 5 5 4 4 5 5 5 6 6 6 6 7 7 6 4 4 3 3 3 3 4
14 12 13 14 15 19 23 22 18 19 20 20 18 18 17 16 14 14 15 14 15 15 14 14 14 14 14 14 13 11 10 9 9 9 10 10 11 11 11 11 11 10 9 8 9 9 9 9 9 9 8 9 9 9 9 8 6 6 6 6 6 6 5 5 6 6 5 5 5 4 5 5 5 6 6 6 6 6 6 4 3 2 2 1 0
14 12 12 13 15 18 21 20 17 18 20 21 21 19 18 17 17 17 16 15 16 16 16 17 16 15 15 14 13 12 11 10 9 10 10 11 11 11 10 10 10 10 9 9 8 8 8 8 9 8 7 8 8 8 9 9 7 7 6 5 5 5 5 7 7 6 6 6 6 4 4 5 5 6 5 5 5 5 5 5 4 3 3 3 3
13 12 12 13 16 17 17 18 18 19 20 21 21 19 18 19 19 18 18 17 17 16 16 16 17 16 15 14 13 13 11 10 10 10 10 11 10 10 10 9 9 8 8 8 8 7 7 7 6 7 7 8 8 8 9 9 9 9 8 5 3 3 5 8 6 6 7 6 5 5 5 6 6 6 5 4 4 4 3 4 4 4 3 2 2
14 12 13 15 17 17 16 18 20 21 21 21 20 19 19 19 18 17 16 16 16 15 15 15 15 15 15 15 14 13 12 11 11 11 11 10 10 9 9 8 8 7 7 7 6 6 6 6 6 6 7 8 9 8 8 9 9 10 10 6 3 2 3 6 6 7 8 6 5 5 5 6 6 6 6 5 5 4 5 5 5 4 4 4 3
15 13 14 16 17 17 17 18 20 21 20 20 20 19 19 20 18 15 14 14 14 14 14 14 15 15 15 15 14 13 12 12 12 11 11 11 10 9 8 8 7 7 7 7 6 6 6 6 6 6 7 7 8 8 9 9 9 9 10 8 6 3 2 4 6 6 8 9 7 6 6 6 6 7 7 6 5 5 6 6 6 5 5 6 6
14 14 15 18 17 16 17 18 19 20 20 19 19 19 19 19 17 14 13 14 13 13 14 14 15 15 15 14 14 13 13 13 13 12 11 10 9 9 8 8 7 7 7 7 7 6 6 6 6 6 6 6 7 8 8 9 8 8 9 8 8 5 2 4 6 6 7 9 9 8 8 7 7 8 8 7 6 6 6 7 6 7 7 7 8
14 16 17 18 18 17 18 20 20 20 19 19 19 19 19 18 16 14 13 14 14 14 15 15 15 15 15 14 14 13 13 12 12 11 10 9 8 8 8 8 8 7 7 7 7 6 6 6 6 6 6 6 7 8 7 8 8 8 8 8 8 7 5 4 6 7 7 7 8 10 9 7 7 8 8 8 7 7 7 8 8 8 9 10 10
13 15 17 19 18 17 20 20 20 20 19 19 19 18 18 17 15 14 14 14 14 15 15 15 16 16 15 15 14 12 12 11 11 10 9 8 8 7 7 7 7 7 7 7 7 6 6 6 6 6 7 6 7 7 6 6 7 8 7 6 6 6 5 4 5 7 7 7 9 11 9 7 7 9 10 10 9 9 10 10 11 11 11 11 12
Wind_Direction
178 175 170 169 170 171 174 174 173 170 167 167 167 167 165 167 167 164 161 160 158 156 155 154 155 156 154 153 149 144 139 133 128 125 124 125 125 125 122 117 115 113 111 110 109 109 109 105 102 101 100 99 96 92 88 84 81 78 76 75 79 83 94 114 115 111 115 112 110 103 93 94 95 97 97 96 97 96 97 97 95 93 91 88 87
175 174 170 169 170 172 174 173 171 167 166 166 166 166 163 165 167 167 166 163 160 159 158 158 159 160 158 157 153 147 143 137 134 130 125 128 130 129 126 121 118 114 111 111 112 114 110 106 105 105 103 102 98 92 88 84 81 78 77 76 77 81 91 109 117 118 121 117 113 105 94 91 92 95 95 95 96 94 93 94 93 90 88 86 83
170 171 169 168 170 172 173 171 169 165 164 165 165 164 161 161 165 169 169 167 164 164 163 162 164 164 161 159 155 151 147 141 139 134 129 133 134 133 132 128 124 119 116 116 116 116 111 108 108 107 106 104 98 92 88 84 81 79 78 77 77 80 87 102 117 122 123 121 119 110 96 90 91 93 95 96 96 97 96 94 92 90 87 83 79
169 168 167 167 169 172 171 170 166 162 163 163 164 161 159 159 162 168 170 170 168 168 167 166 166 166 164 160 158 154 151 147 144 137 135 138 139 136 135 131 126 123 121 120 120 117 112 110 111 110 109 105 96 93 88 84 81 79 79 78 79 81 86 97 113 121 123 123 123 115 101 96 94 92 94 96 97 97 97 94 91 89 85 82 81
167 166 166 166 169 171 171 169 164 161 162 162 162 159 158 157 161 166 168 170 170 171 169 168 168 167 164 162 161 156 154 153 148 143 142 142 140 139 138 132 126 126 126 125 124 118 113 113 113 110 110 107 96 92 88 84 81 78 79 79 80 81 86 95 108 118 120 123 125 115 100 102 103 99 97 96 96 96 95 95 94 91 83 82 84
165 166 166 166 167 170 170 167 163 161 162 161 160 158 157 157 159 163 166 169 170 170 169 168 167 166 163 162 162 158 157 157 153 148 148 145 142 141 138 132 129 132 131 130 127 119 117 116 114 110 108 108 100 92 89 86 82 80 79 79 81 81 84 91 103 114 115 118 124 116 97 101 112 112 109 104 100 98 97 99 98 88 79 82 87
164 165 165 166 166 168 169 165 162 162 162 161 159 157 156 156 158 161 165 167 168 169 167 167 166 164 161 160 157 155 156 158 159 153 152 149 147 145 139 134 135 137 135 134 128 122 122 118 116 111 105 106 103 95 92 89 86 83 80 79 80 81 82 84 91 102 110 115 122 123 107 98 110 117 122 119 109 105 104 100 95 86 80 83 90
164 164 164 165 166 166 166 164 162 162 162 162 160 156 155 154 156 162 165 166 167 169 168 167 164 161 159 155 152 149 149 155 160 158 157 155 153 149 143 140 141 141 138 136 130 128 126 122 120 110 104 105 103 98 95 92 88 86 83 80 80 81 81 81 82 87 95 106 116 126 121 105 102 110 131 135 116 106 100 92 87 85 87 88 94
164 163 164 164 165 165 164 163 162 162 163 163 160 155 154 152 155 162 166 167 168 169 168 166 161 159 156 151 150 149 151 160 165 161 160 158 157 153 147 145 144 143 140 136 133 133 130 129 124 111 107 106 103 99 96 93 91 89 86 82 80 79 80 80 80 80 83 91 101 111 115 111 104 106 126 133 116 99 90 82 77 79 90 98 100
165 163 163 164 165 164 163 163 163 164 164 164 161 157 155 153 155 162 166 167 168 167 165 162 157 155 154 152 153 153 157 169 179 169 157 158 160 155 150 147 146 143 139 137 136 134 133 134 127 116 112 109 104 100 98 95 92 91 89 85 82 80 79 79 79 78 77 80 86 91 94 96 97 100 109 114 108 96 89 84 78 78 85 99 106
165 163 163 164 164 164 163 163 164 165 167 167 163 160 158 156 156 160 164 166 166 165 161 157 153 153 154 154 156 156 159 165 176 172 155 154 157 152 150 149 147 144 140 139 138 137 138 138 129 118 116 113 109 104 100 97 94 92 90 87 84 82 80 78 77 77 76 77 78 81 81 82 84 87 93 94 93 90 90 90 88 84 83 90 99
164 162 162 164 164 163 163 164 166 169 170 170 168 166 162 158 155 155 159 162 163 160 155 150 148 152 155 156 157 160 165 159 165 169 152 147 151 150 151 150 148 145 142 142 142 142 142 139 130 121 120 119 114 108 103 101 97 93 92 89 87 85 83 81 79 78 77 76 76 76 76 77 76 77 79 79 82 85 88 90 90 89 88 88 89
163 162 163 164 164 164 164 166 168 172 173 173 172 168 164 158 151 152 155 158 160 156 150 147 146 149 153 156 160 166 172 167 168 166 148 143 147 150 152 152 150 145 144 146 146 145 143 140 135 127 124 122 118 112 107 104 100 96 95 91 88 86 86 84 82 80 77 75 74 74 75 76 76 75 74 74 76 79 82 85 86 88 90 90 88
164 163 164 164 163 164 165 168 171 174 176 176 175 170 166 158 149 150 153 154 156 153 150 151 149 150 152 153 158 161 161 162 166 160 146 142 144 150 151 154 154 147 146 148 148 148 147 144 141 133 127 125 121 115 112 109 104 100 99 95 91 88 87 86 85 83 80 77 75 73 71 72 73 74 73 71 72 74 77 80 83 85 87 89 89
170 165 165 165 164 163 166 170 173 176 177 178 176 173 168 158 149 149 151 152 152 152 152 155 155 156 155 152 156 156 151 152 154 151 146 142 142 150 151 154 155 151 149 150 151 151 151 150 147 140 132 128 124 119 117 114 108 103 102 99 95 91 88 88 87 86 84 81 78 74 70 68 68 68 68 68 71 73 76 79 79 81 84 86 88
173 169 167 167 165 165 168 172 174 177 179 180 178 175 168 158 150 146 148 148 149 151 151 153 156 158 157 155 157 156 152 148 143 141 142 142 145 151 150 152 157 156 153 153 155 155 155 156 153 148 140 133 128 124 121 118 113 107 104 101 98 94 90 89 89 88 86 85 83 80 75 71 67 65 65 67 68 70 73 76 76 77 79 81 84
174 172 170 169 168 169 170 171 173 177 179 179 179 175 167 160 153 145 145 145 147 150 150 152 156 160 163 162 160 158 153 146 137 134 138 142 144 147 149 156 159 159 159 159 161 161 162 163 161 158 149 140 133 128 124 120 117 111 107 104 102 99 94 91 90 89 87 86 85 85 83 78 73 70 68 68 67 67 67 69 71 72 74 76 78
177 175 173 172 172 173 173 171 171 175 178 178 178 175 168 162 155 146 145 146 147 150 153 155 157 163 166 163 160 156 152 146 136 132 136 136 136 140 147 160 162 161 167 166 168 169 169 170 170 168 158 148 141 134 127 122 119 115 111 109 107 104 99 94 92 90 88 87 87 88 88 87 81 76 73 71 69 68 67 67 69 69 70 72 73
179 176 175 176 176 177 175 171 170 171 174 176 175 173 170 162 155 150 147 147 146 149 154 158 160 163 162 157 154 151 149 145 138 133 136 135 136 144 148 158 168 168 173 174 175 176 176 178 178 177 170 159 153 146 135 126 122 119 115 113 111 109 105 98 94 92 90 88 88 87 88 90 89 84 79 76 73 71 69 67 69 70 71 70 69
179 177 176 179 180 180 177 173 170 170 171 173 172 171 170 161 155 151 148 148 147 149 153 158 159 157 155 153 151 151 148 142 138 138 138 139 143 152 154 164 176 176 178 180 181 181 182 184 185 185 181 172 166 162 152 140 132 127 121 118 115 112 108 101 97 95 93 91 90 88 88 90 90 89 83 78 76 75 71 69 69 70 73 72 72
179 179 179 181 181 181 179 175 170 171 171 170 172 171 169 163 156 151 151 151 149 149 151 153 153 151 153 155 153 150 146 140 141 145 143 144 149 157 162 167 176 179 182 185 185 186 188 190 192 193 191 185 180 177 173 161 151 142 129 125 122 115 109 103 99 98 97 95 93 91 90 88 86 86 83 79 77 77 75 73 73 72 74 75 77
179 179 181 182 182 182 181 176 172 171 170 171 173 172 168 164 160 155 154 152 151 151 150 149 148 150 155 157 152 148 146 142 147 150 147 151 154 155 156 157 165 174 182 187 190 191 193 194 197 201 202 199 193 189 188 182 175 163 138 132 132 123 112 104 101 99 99 99 94 90 89 85 80 80 80 81 79 78 75 71 76 76 75 76 79
180 180 180 182 183 182 179 175 172 172 171 173 176 175 170 166 162 159 155 153 158 156 151 149 148 151 157 158 154 151 149 146 148 147 144 145 145 142 142 144 151 161 173 183 191 195 197 199 202 206 210 210 204 199 198 198 200 196 157 139 137 133 118 107 104 99 96 94 91 92 91 85 79 79 78 78 75 75 76 73 76 75 77 78 78
179 180 180 182 183 181 178 175 173 174 175 175 178 178 176 171 165 163 159 158 164 159 152 151 151 155 159 160 157 154 150 147 144 141 139 137 136 133 133 135 141 149 158 171 183 192 197 202 206 210 214 218 216 212 211 211 215 217 199 158 140 139 133 116 108 99 92 86 86 94 94 91 87 84 81 79 72 67 72 80 81 75 78 80 78
179 180 182 181 182 180 178 178 178 177 178 179 179 180 182 175 169 171 168 164 165 159 155 154 154 157 158 158 155 151 146 143 141 140 139 137 135 133 132 134 138 143 149 158 168 178 187 196 205 212 217 223 225 225 222 221 224 225 221 192 152 144 142 130 116 101 90 83 82 89 92 94 91 88 87 80 73 72 77 93 98 85 80 78 74
180 179 181 182 182 182 182 183 185 183 182 184 184 182 184 179 173 175 174 168 165 160 158 157 155 154 154 153 149 145 140 140 142 142 141 140 139 136 136 137 139 142 145 151 157 162 172 182 196 205 211 220 226 227 223 222 225 228 226 203 164 148 145 142 131 108 95 87 75 75 83 86 81 82 79 62 59 70 82 119 135 128 109 80 70
180 181 181 182 182 184 187 188 189 190 189 190 188 184 184 184 178 177 178 172 166 162 160 159 157 153 154 151 146 143 141 145 147 145 144 143 143 141 140 141 141 143 143 146 149 154 161 166 179 188 194 210 219 222 220 218 220 223 222 205 178 162 157 150 136 121 111 99 80 73 80 78 72 72 56 35 38 51 55 96 149 167 179 141 81
174 181 181 181 185 188 191 191 193 198 198 193 190 189 187 186 182 179 178 173 167 164 164 163 160 157 155 152 149 147 147 150 149 146 147 145 145 145 145 146 145 146 144 144 145 149 155 158 167 174 183 200 208 213 216 212 210 212 214 212 205 196 181 153 138 138 128 116 107 97 87 80 76 69 48 27 31 43 50 52 79 200 220 191 115
165 175 181 184 189 193 196 196 199 205 204 196 192 193 191 187 183 182 178 173 170 169 172 168 164 162 157 157 155 153 152 152 150 148 151 148 147 149 149 150 148 146 145 145 147 150 155 158 164 171 182 196 201 203 207 203 198 202 209 214 215 210 200 160 155 147 136 136 135 123 100 89 86 66 48 44 36 48 58 52 44 30 328 246 188
166 180 189 196 198 197 200 201 203 208 206 198 194 192 193 192 187 186 183 177 177 179 181 172 171 169 160 161 160 157 156 153 153 152 153 150 149 152 153 154 151 152 154 154 157 158 159 162 166 171 182 194 201 201 199 197 189 193 201 206 207 202 190 174 166 150 146 151 143 128 113 103 103 67 47 52 44 51 52 44 43 44 46 52 39
203 199 203 211 210 204 205 206 205 208 207 201 196 193 196 196 188 187 183 180 185 186 181 174 176 174 164 165 165 163 162 159 161 158 153 153 154 158 160 162 166 172 176 172 168 163 161 164 167 172 181 189 196 197 197 199 191 187 192 196 197 194 188 181 172 161 158 155 146 138 127 129 130 80 45 50 56 59 42 33 43 50 54 53 46
179 192 206 214 215 210 209 211 210 209 207 202 196 194 197 196 190 190 186 187 191 185 179 174 173 173 168 169 170 168 167 164 166 163 158 159 162 167 171 177 182 184 184 178 168 166 164 162 164 171 179 187 190 191 192 194 192 189 188 189 191 194 191 179 172 168 162 158 163 158 146 153 147 106 54 51 64 85 60 28 43 50 53 52 59
160 165 187 208 215 214 213 212 211 211 206 200 196 195 198 199 195 192 193 192 188 183 180 174 170 170 169 171 174 172 170 169 168 165 165 168 171 176 185 189 188 186 182 174 166 164 164 160 160 166 176 185 187 188 188 188 191 190 187 185 186 193 191 179 175 168 161 166 174 167 156 156 148 130 85 58 66 96 123 62 49 50 53 62 74
154 161 177 201 211 216 216 212 210 209 204 199 198 199 199 199 194 190 196 190 183 186 179 170 168 169 171 174 175 175 173 172 171 172 174 174 179 185 193 196 192 188 183 178 173 169 165 162 160 165 177 183 184 186 186 184 184 185 185 185 184 189 192 187 179 165 165 177 174 167 158 150 152 152 137 98 70 80 106 128 98 61 57 71 80
164 177 189 203 208 212 212 209 209 207 202 200 202 203 200 196 193 194 196 186 183 186 176 168 170 172 175 176 176 178 177 175 175 179 180 179 184 191 196 197 195 195 194 191 186 180 176 169 167 173 184 185 182 182 184 179 176 177 180 182 180 182 188 189 181 172 179 180 166 169 161 150 161 152 148 162 117 74 73 96 132 99 71 77 84
180 190 198 206 210 212 211 210 212 209 202 202 204 206 204 199 201 202 192 183 182 181 174 171 174 176 178 178 178 179 178 180 181 181 184 184 188 194 197 198 199 201 202 198 192 187 182 176 177 184 186 185 184 180 179 174 170 174 179 180 178 178 181 184 181 181 190 181 161 174 170 165 170 151 152 170 170 156 90 67 118 122 105 100 101
203 210 210 212 213 216 220 218 214 209 204 205 206 205 206 203 204 202 186 181 179 176 177 177 178 180 179 179 179 179 180 182 183 183 185 188 193 200 203 202 200 199 199 195 191 188 184 181 187 196 190 186 187 182 177 172 167 174 181 183 180 179 177 179 183 188 198 184 152 170 181 182 188 168 166 173 177 185 164 76 98 126 140 138 126
236 237 222 215 213 214 220 223 217 208 205 207 206 203 201 199 199 195 183 179 177 176 180 180 180 181 179 180 180 181 184 184 185 188 191 196 201 208 211 205 199 198 197 193 192 192 191 189 190 200 196 188 186 181 179 175 170 172 178 182 180 178 175 179 187 189 196 180 140 162 182 182 192 192 179 172 172 181 173 103 82 100 161 165 154
244 242 230 215 211 213 218 225 220 208 207 208 202 195 194 195 191 186 181 180 179 180 183 182 182 183 180 180 181 181 184 184 187 191 197 204 210 217 215 205 201 202 198 193 194 195 193 191 191 196 199 194 186 179 179 176 171 171 173 178 176 175 177 179 183 180 182 173 145 163 179 177 188 193 184 172 171 179 176 140 110 104 150 176 169
237 234 232 213 208 213 215 221 219 208 209 206 195 191 195 194 183 178 181 180 181 183 184 183 183 184 181 180 181 181 183 184 188 193 200 208 213 219 214 208 207 202 198 194 195 197 192 193 195 194 198 202 192 180 178 177 178 176 174 179 178 177 177 173 171 168 166 161 152 162 171 178 187 186 180 173 173 181 182 161 142 131 117 126 154
226 219 217 209 209 213 210 211 210 205 200 196 194 195 196 190 178 179 182 180 183 184 183 183 182 182 182 183 182 183 187 189 193 197 204 210 212 214 213 212 208 198 194 193 195 199 195 193 195 193 195 202 201 189 181 179 185 184 177 179 179 178 178 175 169 159 151 148 149 162 171 184 191 183 179 183 185 181 178 171 157 139 122 112 119
218 211 204 206 212 214 211 208 203 198 193 192 197 195 191 186 181 182 182 181 183 182 182 182 181 183 184 185 185 189 195 195 199 201 203 209 211 212 211 209 203 195 193 197 199 200 198 193 194 198 197 196 202 199 187 179 186 190 180 170 164 162 163 165 158 144 145 144 139 153 171 184 190 186 186 193 196 187 180 179 165 145 136 120 105
213 205 198 206 211 210 213 212 203 195 191 192 196 192 186 182 181 180 179 181 181 179 182 184 183 187 189 188 191 197 200 199 199 199 201 206 207 207 206 203 200 197 197 201 204 200 196 191 192 205 206 199 199 201 194 188 187 186 179 171 164 155 144 146 149 136 135 139 131 146 163 171 180 185 187 193 199 200 196 193 178 161 152 121 95
204 195 200 210 207 204 209 211 206 197 191 191 193 190 182 176 173 174 176 179 180 180 184 186 187 191 192 194 197 197 195 194 193 195 199 202 202 200 200 201 200 200 198 201 206 203 198 193 195 206 210 207 203 201 200 196 190 181 176 177 172 163 153 157 156 137 130 134 130 141 151 150 162 170 171 180 194 204 205 205 206 200 200 215 104
198 194 208 214 206 205 206 207 209 200 191 190 190 185 179 174 171 172 174 176 180 185 187 188 191 193 195 196 195 191 186 187 189 193 195 196 198 197 195 197 199 199 195 195 199 198 198 197 201 208 211 215 211 209 210 203 195 184 177 174 167 172 175 165 152 133 138 142 132 138 142 136 146 156 157 159 165 183 202 211 222 230 236 254 259
198 199 209 213 211 210 207 205 207 201 194 191 186 180 177 176 176 176 178 179 181 186 188 191 193 192 192 191 188 186 183 184 187 188 190 190 193 193 192 192 194 195 190 191 194 190 194 197 203 212 214 217 214 213 217 213 206 193 180 175 166 176 183 174 159 140 140 134 131 143 137 135 145 151 150 142 140 151 174 189 199 213 216 218 236
202 199 205 210 210 210 205 200 198 197 194 188 182 178 177 175 177 180 183 184 186 188 188 189 190 187 185 185 186 185 182 184 185 184 184 183 182 183 184 183 183 185 180 181 182 178 185 190 194 202 205 211 211 208 212 215 213 204 192 188 183 151 156 172 168 153 142 128 139 150 128 130 139 139 141 141 144 145 139 146 157 165 165 156 156
206 193 198 206 206 203 196 191 190 190 188 184 180 176 174 174 178 184 187 189 192 192 187 183 185 183 181 184 187 186 185 184 182 180 177 173 171 172 174 174 177 179 176 173 173 172 182 190 191 193 198 208 208 204 208 210 212 215 209 199 192 176 126 151 161 157 151 142 145 145 127 132 140 136 140 143 141 138 133 137 141 140 142 141 134
208 188 193 204 204 196 189 187 186 185 183 181 178 174 173 177 182 186 187 189 192 193 189 183 183 182 181 186 188 187 185 182 179 175 172 170 169 170 172 177 182 185 185 183 182 182 191 204 209 204 205 211 209 205 208 209 212 223 224 213 209 212 194 166 168 164 153 147 152 154 144 148 151 139 135 133 130 128 129 131 131 132 133 131 129
202 186 194 203 203 195 188 187 184 183 181 177 176 174 176 181 184 186 187 188 187 190 191 185 183 183 184 186 186 186 186 182 177 172 171 175 176 174 177 182 189 193 196 194 190 191 199 214 221 213 208 208 207 205 205 209 211 214 219 221 225 228 227 204 183 168 154 150 158 160 156 158 150 135 128 127 128 128 128 128 127 127 127 125 123
192 185 197 204 204 195 189 187 183 181 178 174 176 178 179 182 185 185 188 190 188 189 192 189 186 185 183 183 182 180 181 178 175 172 173 177 176 173 175 182 191 194 196 194 192 196 197 205 213 208 204 203 201 202 207 214 209 198 198 210 220 221 228 237 203 177 168 154 151 155 157 151 138 134 133 130 130 130 128 127 125 124 124 121 117